DW5247 Lemo FI current weather conditions

sailwx.info

Wind from 045 at 5 knots gusting 7

Air temperature 16.7° C
Dewpoint 6.2° C

Last reported at 2015-May-22 09:47 UTC.
Time now 2015-May-22 10:06 UTC

Location: N 62°41' E 029°49'.
View on Google Maps.

See reports from other nearby stations

  
Tides and Currents Weather Stations Pressure Air Temp Water Temp Dewpoint Dewpoint Depression Visibility Wind Speed Wind Dir Waves Ship Positions
date/time (UTC)wind fromknots sea level pressurealtimeterstation pressurevisibilityair tempwater tempwave heightnotes
2015-May-22 09:47 045 5 gusting 7 16.7
2015-May-22 09:42 068 4 gusting 7 16.7
2015-May-22 09:37 113 3 gusting 9 16.7
2015-May-22 09:32 090 4 gusting 9 16.1
2015-May-22 09:27 068 3 gusting 4 16.1
2015-May-22 09:22 090 4 gusting 4 16.1
2015-May-22 09:17 068 3 gusting 4 16.1
2015-May-22 09:12 045 3 gusting 6 16.1
2015-May-22 09:07 045 3 gusting 6 15.6
2015-May-22 09:02 045 3 gusting 9 15.6
2015-May-22 08:57 135 3 gusting 9 15.6
2015-May-22 08:52 113 3 gusting 9 15.6
2015-May-22 08:47 180 3 gusting 7 15.6
2015-May-22 08:42 113 2 gusting 7 15.0
2015-May-22 08:37 158 2 gusting 7 15.0
2015-May-22 08:32 045 2 gusting 7 15.0
2015-May-22 08:27 158 3 gusting 8 15.0
2015-May-22 08:22 15.0
2015-May-22 08:17 158 5 gusting 9 15.0
2015-May-22 08:12 180 5 gusting 7 15.0
2015-May-22 08:07 180 3 gusting 7 15.0
2015-May-22 08:02 135 3 gusting 4 15.0
2015-May-22 07:57 158 2 gusting 8 15.0
2015-May-22 07:52 158 2 gusting 8 15.0
2015-May-22 07:47 113 4 gusting 8 14.4
2015-May-22 07:42 158 6 gusting 8 14.4
2015-May-22 07:37 180 5 gusting 7 14.4
2015-May-22 07:32 180 4 gusting 6 14.4
2015-May-22 07:27 135 3 gusting 6 14.4
2015-May-22 07:22 203 2 gusting 4 14.4
2015-May-22 07:17 180 2 gusting 6 14.4
2015-May-22 07:07 135 3 gusting 9 14.4
2015-May-22 07:02 135 3 gusting 9 14.4
2015-May-22 06:57 225 2 gusting 8 13.9
2015-May-22 06:52 090 3 gusting 9 13.9
2015-May-22 06:47 203 3 gusting 9 13.9
2015-May-22 06:42 158 4 gusting 6 13.9
2015-May-22 06:37 135 3 gusting 4 13.9
2015-May-22 06:32 158 3 gusting 5 13.9
2015-May-22 06:27 203 2 gusting 6 13.9
2015-May-22 06:22 180 3 gusting 6 13.3
2015-May-22 06:17 180 4 gusting 6 13.3
2015-May-22 06:12 248 4 gusting 6 13.3
2015-May-22 06:07 203 3 gusting 7 13.3
2015-May-22 06:02 180 4 gusting 7 13.3
2015-May-22 05:57 12.8
2015-May-22 05:52 158 4 gusting 5 12.8
2015-May-22 05:47 068 2 gusting 4 12.8
2015-May-22 05:42 180 1 gusting 4 12.8
2015-May-22 05:37 180 2 gusting 6 12.2
2015-May-22 05:32 158 3 gusting 6 12.2
2015-May-22 05:27 180 3 gusting 6 12.2
2015-May-22 05:22 113 3 gusting 6 11.7
2015-May-22 05:17 135 4 gusting 6 11.7
2015-May-22 05:12 180 4 gusting 6 11.7
2015-May-22 05:07 180 4 gusting 6 11.7
2015-May-22 05:02 135 3 gusting 6 11.1
2015-May-22 04:57 158 2 gusting 6 11.1
2015-May-22 04:52 158 1 gusting 6 11.1
2015-May-22 04:47 158 1 gusting 4 10.6
2015-May-22 04:42 135 1 gusting 4 10.6
2015-May-22 04:37 135 2 gusting 6 10.6
2015-May-22 04:32 180 3 gusting 6 10.6
2015-May-22 04:27 158 3 gusting 6 10.0
2015-May-22 04:22 158 3 gusting 5 10.0
2015-May-22 04:17 180 2 gusting 6 9.4
2015-May-22 04:12 180 3 gusting 6 9.4
2015-May-22 04:07 180 3 gusting 6 9.4
2015-May-22 04:02 158 3 gusting 6 9.4
2015-May-22 03:57 180 3 gusting 6 8.9
2015-May-22 03:52 225 2 gusting 5 8.9
2015-May-22 03:47 180 1 gusting 3 8.3
2015-May-22 03:42 180 1 gusting 4 8.3
2015-May-22 03:37 158 1 gusting 5 7.8
2015-May-22 03:32 158 1 gusting 5 7.8
2015-May-22 03:27 135 1 gusting 5 7.2
2015-May-22 03:22 158 1 gusting 3 6.7
2015-May-22 03:17 180 0 gusting 3 6.1
2015-May-22 03:12 158 0 6.1
2015-May-22 03:07 135 5.0
2015-May-22 03:02 135 5.0
2015-May-22 02:57 158 5.0
2015-May-22 02:52 135 4.4
2015-May-22 02:47 113 4.4
2015-May-22 02:42 135 3.9
2015-May-22 02:37 203 3.9
2015-May-22 02:32 135 3.3
2015-May-22 02:27 135 3.3
2015-May-22 02:22 135 3.3
2015-May-22 02:17 135 3.3
2015-May-22 02:12 135 2.8
2015-May-22 02:07 135 2.8
2015-May-22 02:02 135 2.8
2015-May-22 01:57 135 2.8
2015-May-22 01:52 135 2.8
2015-May-22 01:47 135 2.8
2015-May-22 01:42 135 2.8
2015-May-22 01:37 135 2.8
2015-May-22 01:32 135 2.8
2015-May-22 01:27 135 3.3
2015-May-22 01:22 135 3.3
2015-May-22 01:17 203 3.3
2015-May-22 01:12 203 3.3
2015-May-22 01:07 203 3.3
2015-May-22 01:02 203 3.3
2015-May-22 00:57 203 3.3
2015-May-22 00:52 180 3.3
2015-May-22 00:47 248 3.3
2015-May-22 00:42 203 3.3
2015-May-22 00:37 203 3.3
2015-May-22 00:32 203 3.3
2015-May-22 00:27 135 3.3
2015-May-22 00:22 135 3.3
2015-May-22 00:17 338 3.3
2015-May-22 00:12 338 3.9
2015-May-22 00:07 338 3.9
2015-May-22 00:02 338 3.9
2015-May-21 23:57 338 3.9
2015-May-21 23:52 338 3.9
2015-May-21 23:47 338 4.4
2015-May-21 23:42 338 4.4
2015-May-21 23:37 338 0 gusting 1 4.4
2015-May-21 23:32 338 0 gusting 1 4.4
2015-May-21 23:27 315 0 gusting 1 4.4
2015-May-21 23:22 293 0 gusting 1 5.0
2015-May-21 23:17 158 5.0
2015-May-21 23:12 158 5.0
2015-May-21 23:07 113 5.6
2015-May-21 23:02 113 5.6
2015-May-21 22:57 158 5.6
2015-May-21 22:52 113 5.6
2015-May-21 22:47 135 6.1
2015-May-21 22:42 113 6.1
2015-May-21 22:37 135 6.1
2015-May-21 22:32 158 6.1
2015-May-21 22:27 113 6.1
2015-May-21 22:22 135 6.1
2015-May-21 22:17 113 6.1
2015-May-21 22:12 113 6.1
2015-May-21 22:07 135 0 gusting 1 6.1
2015-May-21 22:02 135 0 gusting 1 6.1
2015-May-21 21:57 135 5.6
2015-May-21 21:52 135 5.6
2015-May-21 21:47 113 5.6
2015-May-21 21:42 135 6.1
2015-May-21 21:37 113 6.1
2015-May-21 21:32 135 6.1
2015-May-21 21:27 113 6.1
2015-May-21 21:22 113 6.1
2015-May-21 21:17 068 6.1
2015-May-21 21:12 068 6.7
2015-May-21 21:07 068 6.7
2015-May-21 20:57 068 6.7
2015-May-21 20:52 068 6.7
2015-May-21 20:47 068 7.2
2015-May-21 20:42 068 7.2
2015-May-21 20:37 068 7.2
2015-May-21 20:32 068 7.2
2015-May-21 20:27 068 7.8
2015-May-21 20:22 068 7.8
2015-May-21 20:17 068 7.8
2015-May-21 20:12 068 7.8
2015-May-21 20:07 068 7.8
2015-May-21 20:02 068 7.8
2015-May-21 19:57 090 8.3
2015-May-21 19:52 090 8.3
2015-May-21 19:47 045 8.3
2015-May-21 19:42 135 8.3
2015-May-21 19:37 135 8.3
2015-May-21 19:32 113 8.3
2015-May-21 19:27 090 8.9
2015-May-21 19:22 113 8.9
2015-May-21 19:17 113 8.9
2015-May-21 19:12 113 8.9
2015-May-21 19:07 113 8.9
2015-May-21 19:02 113 9.4
2015-May-21 18:57 113 0 gusting 2 9.4
2015-May-21 18:52 135 0 gusting 2 9.4
2015-May-21 18:47 135 1 gusting 1 9.4
2015-May-21 18:42 113 0 gusting 2 9.4
2015-May-21 18:37 113 0 gusting 2 9.4
2015-May-21 18:32 135 0 gusting 2 10.0
2015-May-21 18:27 135 1 gusting 2 10.0
2015-May-21 18:22 135 1 gusting 2 10.0
2015-May-21 18:17 158 1 gusting 3 10.0
2015-May-21 18:12 158 1 gusting 3 10.6
2015-May-21 18:07 158 1 gusting 3 10.6
2015-May-21 18:02 180 1 gusting 3 10.6
2015-May-21 17:57 113 2 gusting 4 10.6
2015-May-21 17:52 158 2 gusting 4 10.6
2015-May-21 17:47 158 2 gusting 4 10.6
2015-May-21 17:42 113 1 gusting 3 11.1
2015-May-21 17:37 158 2 gusting 4 11.1
2015-May-21 17:32 135 2 gusting 4 11.1
2015-May-21 17:27 180 2 gusting 4 11.1
2015-May-21 17:22 113 2 gusting 3 11.1
2015-May-21 17:17 180 1 gusting 3 11.1
2015-May-21 17:12 158 1 gusting 4 11.1
2015-May-21 17:07 158 3 gusting 4 10.6
2015-May-21 17:02 158 2 gusting 5 10.6
2015-May-21 16:57 180 2 gusting 5 10.6
2015-May-21 16:52 180 3 gusting 5 10.6
2015-May-21 16:47 135 3 gusting 5 10.6
2015-May-21 16:42 113 3 gusting 5 10.6
2015-May-21 16:37 158 2 gusting 5 10.6
2015-May-21 16:32 180 1 gusting 3 10.6
2015-May-21 16:27 158 1 gusting 3 10.6
2015-May-21 16:22 135 0 gusting 3 10.6
2015-May-21 16:17 180 0 gusting 3 10.6
2015-May-21 16:12 158 1 gusting 2 10.6
2015-May-21 16:07 135 0 gusting 2 10.6
2015-May-21 16:02 158 0 gusting 2 10.6
2015-May-21 15:57 158 1 gusting 3 10.6
2015-May-21 15:52 225 1 gusting 3 10.6
2015-May-21 15:47 203 1 gusting 3 10.6
2015-May-21 15:42 225 1 gusting 3 10.6
2015-May-21 15:37 113 1 gusting 3 10.6
2015-May-21 15:32 180 2 gusting 3 10.6
2015-May-21 15:27 225 1 gusting 3 10.6
2015-May-21 15:22 203 1 gusting 2 10.6
2015-May-21 15:17 158 1 gusting 3 10.6
2015-May-21 15:12 180 1 gusting 3 10.6
2015-May-21 15:07 248 1 gusting 3 10.6
2015-May-21 15:02 158 1 gusting 3 10.6
2015-May-21 14:57 225 2 gusting 3 10.6
2015-May-21 14:52 203 2 gusting 4 10.6
2015-May-21 14:47 248 1 gusting 5 10.6
2015-May-21 14:42 203 1 gusting 5 10.6
2015-May-21 14:37 225 1 gusting 5 10.6
2015-May-21 14:32 045 1 gusting 5 10.6
2015-May-21 14:27 158 1 gusting 5 10.6
2015-May-21 14:22 158 2 gusting 3 10.0
2015-May-21 14:17 180 1 gusting 5 10.0
2015-May-21 14:12 158 1 gusting 6 10.0
2015-May-21 14:07 270 2 gusting 6 10.0
2015-May-21 14:02 203 2 gusting 4 9.4
2015-May-21 13:57 158 2 gusting 3 9.4
2015-May-21 13:52 225 1 gusting 3 9.4
2015-May-21 13:47 270 1 gusting 3 9.4
2015-May-21 13:42 225 1 gusting 3 9.4
2015-May-21 13:37 180 0 gusting 3 9.4
2015-May-21 13:32 248 1 gusting 2 9.4
2015-May-21 13:27 9.4
2015-May-21 13:22 225 0 gusting 1 9.4
2015-May-21 13:17 270 1 gusting 2 9.4
2015-May-21 13:12 203 1 gusting 2 9.4
2015-May-21 13:07 248 0 gusting 2 8.9
2015-May-21 13:02 203 0 gusting 2 8.9
2015-May-21 12:57 248 0 gusting 2 8.9
2015-May-21 12:52 225 1 gusting 2 8.9
2015-May-21 12:47 225 1 gusting 2 8.9
2015-May-21 12:42 248 1 gusting 2 8.9
2015-May-21 12:37 203 1 gusting 2 8.9
2015-May-21 12:32 158 0 gusting 2 8.9
2015-May-21 12:27 225 0 gusting 2 8.9
2015-May-21 12:22 225 0 gusting 4 8.9
2015-May-21 12:17 158 0 gusting 4 8.9
2015-May-21 12:12 203 1 gusting 4 8.9
2015-May-21 12:07 225 1 gusting 3 8.9
2015-May-21 12:02 203 1 gusting 3 8.9
2015-May-21 11:57 180 1 gusting 3 8.9
2015-May-21 11:52 248 1 gusting 2 8.3
2015-May-21 11:47 248 0 gusting 2 8.3
2015-May-21 11:42 180 0 gusting 2 8.3
2015-May-21 11:37 293 1 gusting 2 8.3
2015-May-21 11:32 248 1 gusting 2 8.9
2015-May-21 11:27 180 1 gusting 3 8.9
2015-May-21 11:22 203 1 gusting 3 8.3
2015-May-21 11:17 113 1 gusting 4 8.9
2015-May-21 11:12 225 1 gusting 4 8.9
2015-May-21 11:07 225 1 gusting 4 8.9
2015-May-21 11:02 225 1 gusting 4 8.9
2015-May-21 10:57 248 1 gusting 4 8.9
2015-May-21 10:52 180 0 gusting 3 8.9
2015-May-21 10:47 203 1 gusting 6 8.9
2015-May-21 10:42 203 2 gusting 6 8.9
2015-May-21 10:37 338 2 gusting 6 8.9
2015-May-21 10:32 225 2 gusting 6 8.9
2015-May-21 10:27 248 2 gusting 6 8.9
2015-May-21 10:22 225 1 gusting 6 8.9
2015-May-21 10:17 225 1 gusting 3 8.9
2015-May-21 10:12 248 0 gusting 3 9.4
2015-May-21 10:07 203 0 gusting 3 9.4
2015-May-21 10:02 180 0 gusting 3 9.4
2015-May-21 09:57 248 0 gusting 4 9.4
2015-May-21 09:52 180 0 gusting 4 9.4
2015-May-21 09:47 315 1 gusting 6 9.4
2015-May-21 09:42 270 1 gusting 6 9.4
2015-May-21 09:37 248 2 gusting 6 9.4
2015-May-21 09:32 135 3 gusting 6 9.4
2015-May-21 09:27 180 2 gusting 4 10.0
2015-May-21 09:22 225 1 gusting 3 10.0
2015-May-21 09:17 135 1 gusting 3 10.0
2015-May-21 09:12 225 1 gusting 2 10.0
2015-May-21 09:07 180 0 gusting 2 10.6
2015-May-21 09:02 180 0 gusting 1 10.6
2015-May-21 08:57 180 0 gusting 1 10.6
2015-May-21 08:52 225 0 gusting 1 10.6
2015-May-21 08:47 203 0 gusting 3 10.6
2015-May-21 08:42 248 1 gusting 3 10.6
2015-May-21 08:37 248 1 gusting 3 10.6
2015-May-21 08:32 225 1 gusting 2 10.6
2015-May-21 08:27 270 1 gusting 2 10.6
2015-May-21 08:22 248 1 gusting 2 10.6
2015-May-21 08:17 248 0 gusting 2 11.1
2015-May-21 08:12 225 0 gusting 3 10.6
2015-May-21 08:07 248 0 gusting 3 10.6
2015-May-21 08:02 225 0 gusting 3 10.6
2015-May-21 07:57 315 1 gusting 3 10.6
2015-May-21 07:52 270 0 gusting 3 10.6
2015-May-21 07:47 225 0 gusting 1 10.6
2015-May-21 07:42 203 10.6
2015-May-21 07:37 158 10.6
2015-May-21 07:32 113 10.6
2015-May-21 07:27 248 10.0
2015-May-21 07:22 180 10.0
2015-May-21 07:17 158 0 gusting 2 10.0
2015-May-21 07:12 158 1 gusting 2 10.0
2015-May-21 07:07 135 0 gusting 1 9.4
2015-May-21 07:02 203 9.4
2015-May-21 06:57 135 9.4
2015-May-21 06:52 135 9.4
2015-May-21 06:47 135 9.4
2015-May-21 06:42 135 8.9
2015-May-21 06:37 113 8.9
2015-May-21 06:32 023 0 gusting 1 8.9
2015-May-21 06:27 023 8.9
2015-May-21 06:22 023 8.9
2015-May-21 06:17 023 0 gusting 1 8.9
2015-May-21 06:12 023 8.3
2015-May-21 06:07 338 8.3
2015-May-21 06:02 338 8.3
2015-May-21 05:57 180 8.3
2015-May-21 05:52 180 8.3
2015-May-21 05:47 180 8.3
2015-May-21 05:42 180 8.3
2015-May-21 05:37 338 8.3
2015-May-21 05:32 338 0 gusting 1 7.8
2015-May-21 05:27 338 7.8
2015-May-21 05:22 7.8
2015-May-21 05:17 7.8
2015-May-21 05:12 7.8
2015-May-21 05:07 7.8
2015-May-21 05:02 023 7.8
2015-May-21 04:57 338 7.8
2015-May-21 04:52 338 7.8
2015-May-21 04:47 338 7.8
2015-May-21 04:42 338 7.8
2015-May-21 04:37 338 7.2
2015-May-21 04:32 7.2
2015-May-21 04:27 7.2
2015-May-21 04:22 338 7.2
2015-May-21 04:17 338 7.2
2015-May-21 04:12 338 6.7
2015-May-21 04:07 338 6.7
2015-May-21 04:02 338 6.7
2015-May-21 03:57 338 6.7
2015-May-21 03:52 338 6.7
2015-May-21 03:47 338 6.7
2015-May-21 03:42 338 6.1
2015-May-21 03:37 338 6.1
2015-May-21 03:32 338 6.1
2015-May-21 03:27 338 6.1
2015-May-21 03:22 338 6.1
2015-May-21 03:17 338 6.1
2015-May-21 03:12 338 5.6
2015-May-21 03:07 338 5.6
2015-May-21 03:02 338 5.6
2015-May-21 02:57 338 5.6
2015-May-21 02:52 338 5.6
2015-May-21 02:47 338 5.6
2015-May-21 02:42 315 5.6
2015-May-21 02:37 315 5.6
2015-May-21 02:32 315 5.6
2015-May-21 02:27 315 5.0
2015-May-21 02:22 315 5.0
2015-May-21 02:17 315 5.0
2015-May-21 02:12 315 5.0
2015-May-21 02:07 315 5.0
2015-May-21 02:02 315 5.0
2015-May-21 01:57 315 5.0
2015-May-21 01:52 315 5.0
2015-May-21 01:47 315 5.0
2015-May-21 01:42 315 5.6
2015-May-21 01:37 315 5.0
2015-May-21 01:32 315 5.0
2015-May-21 01:27 338 5.6
2015-May-21 01:22 338 5.6
2015-May-21 01:17 338 5.6
2015-May-21 01:12 338 5.6
2015-May-21 01:07 338 5.6
2015-May-21 01:02 338 5.6
2015-May-21 00:57 315 5.6
2015-May-21 00:52 315 5.6
2015-May-21 00:47 315 5.6
2015-May-21 00:42 315 5.6
2015-May-21 00:37 315 5.6
2015-May-21 00:32 248 5.6
2015-May-21 00:27 113 6.1
2015-May-21 00:22 113 5.6
2015-May-21 00:17 113 6.1
2015-May-21 00:12 113 6.1
2015-May-21 00:07 113 6.1
2015-May-21 00:02 113 6.1
2015-May-20 23:57 113 6.1
2015-May-20 23:52 113 6.1
2015-May-20 23:47 113 6.1
2015-May-20 23:42 113 6.1
2015-May-20 23:37 113 6.1
2015-May-20 23:32 113 6.1
2015-May-20 23:27 113 6.1
2015-May-20 23:22 113 6.1
2015-May-20 23:17 113 6.7
2015-May-20 23:12 113 6.7
2015-May-20 23:07 113 6.7
2015-May-20 23:02 113 6.7
2015-May-20 22:57 113 6.7
2015-May-20 22:52 113 6.7
2015-May-20 22:47 113 6.7
2015-May-20 22:42 113 6.7
2015-May-20 22:37 113 6.7
2015-May-20 22:32 113 6.7
2015-May-20 22:27 113 6.7
2015-May-20 22:22 113 6.7
2015-May-20 22:17 113 6.7
2015-May-20 22:12 113 7.2
2015-May-20 22:07 113 7.2
2015-May-20 22:02 113 7.2
2015-May-20 21:57 113 7.2
2015-May-20 21:52 113 7.2
2015-May-20 21:47 113 7.2
2015-May-20 21:42 113 7.2
2015-May-20 21:37 113 7.8
2015-May-20 21:32 113 7.8
2015-May-20 21:27 113 7.8
2015-May-20 21:22 113 7.8
2015-May-20 21:17 113 7.8
2015-May-20 21:12 113 7.8
2015-May-20 21:07 113 8.3
2015-May-20 20:57 113 8.3
2015-May-20 20:52 113 8.3
2015-May-20 20:47 113 8.9
2015-May-20 20:42 113 8.9
2015-May-20 20:37 113 8.9
2015-May-20 20:32 113 8.9
2015-May-20 20:27 113 9.4
2015-May-20 20:22 113 9.4
2015-May-20 20:17 113 9.4
2015-May-20 20:12 113 9.4
2015-May-20 20:07 113 10.0
2015-May-20 20:02 113 10.0
2015-May-20 19:57 113 10.6
2015-May-20 19:52 113 10.6
2015-May-20 19:47 113 10.6
2015-May-20 19:42 113 10.6
2015-May-20 19:37 113 11.1
2015-May-20 19:32 113 11.1
2015-May-20 19:27 113 11.1
2015-May-20 19:22 113 11.7
2015-May-20 19:17 113 11.7
2015-May-20 19:12 113 11.7
2015-May-20 19:07 113 12.2
2015-May-20 19:02 113 12.2
2015-May-20 18:57 113 12.2
2015-May-20 18:52 113 12.8
2015-May-20 18:47 113 12.8
2015-May-20 18:42 113 12.8
2015-May-20 18:37 113 13.3
2015-May-20 18:32 113 13.3
2015-May-20 18:27 113 13.3
2015-May-20 18:22 113 13.3
2015-May-20 18:17 113 13.3
2015-May-20 18:12 113 13.3
2015-May-20 18:07 113 13.3
2015-May-20 18:02 113 13.3
2015-May-20 17:57 113 13.9
2015-May-20 17:52 113 13.9
2015-May-20 17:47 068 13.9
2015-May-20 17:42 068 13.9
2015-May-20 17:37 068 0 gusting 3 13.9
2015-May-20 17:32 068 0 gusting 3 13.9
2015-May-20 17:27 113 1 gusting 3 13.9
2015-May-20 17:22 068 1 gusting 3 13.9
2015-May-20 17:17 068 1 gusting 3 14.4
2015-May-20 17:12 068 1 gusting 4 14.4
2015-May-20 17:07 068 1 gusting 4 14.4
2015-May-20 17:02 090 2 gusting 4 14.4
2015-May-20 16:57 090 2 gusting 4 14.4
2015-May-20 16:52 068 1 gusting 2 14.4
2015-May-20 16:47 045 1 gusting 2 14.4
2015-May-20 16:42 068 1 gusting 2 14.4
2015-May-20 16:37 068 1 gusting 2 14.4
2015-May-20 16:32 090 1 gusting 3 14.4
2015-May-20 16:27 068 1 gusting 5 14.4
2015-May-20 16:22 068 1 gusting 5 14.4
2015-May-20 16:17 090 1 gusting 5 15.0
2015-May-20 16:12 090 2 gusting 6 15.0
2015-May-20 16:07 113 2 gusting 6 15.0
2015-May-20 16:02 068 3 gusting 6 15.0
2015-May-20 15:57 068 2 gusting 3 15.0
2015-May-20 15:52 068 1 gusting 2 15.0
2015-May-20 15:47 068 1 gusting 3 15.0
2015-May-20 15:42 090 1 gusting 4 15.0
2015-May-20 15:37 090 1 gusting 4 15.0
2015-May-20 15:32 090 2 gusting 4 15.0
2015-May-20 15:27 090 2 gusting 3 15.0
2015-May-20 15:22 113 2 gusting 3 15.0
2015-May-20 15:17 068 1 gusting 3 15.0
2015-May-20 15:12 090 1 gusting 4 15.0
2015-May-20 15:07 158 1 gusting 7 15.0
2015-May-20 15:02 113 2 gusting 7 15.0
2015-May-20 14:57 090 3 gusting 7 15.0
2015-May-20 14:52 158 3 gusting 5 15.0
2015-May-20 14:47 068 2 gusting 5 15.0
2015-May-20 14:42 113 2 gusting 5 15.0
2015-May-20 14:37 068 3 gusting 4 15.0
2015-May-20 14:32 068 2 gusting 4 15.0
2015-May-20 14:27 068 1 gusting 6 14.4
2015-May-20 14:22 158 2 gusting 6 14.4
2015-May-20 14:17 068 3 gusting 6 14.4
2015-May-20 14:12 113 3 gusting 6 14.4
2015-May-20 14:07 068 2 gusting 6 14.4
2015-May-20 14:02 068 2 gusting 5 13.9
2015-May-20 13:57 068 2 gusting 5 13.9
2015-May-20 13:52 068 3 gusting 5 14.4
2015-May-20 13:47 113 3 gusting 9 14.4
2015-May-20 13:42 113 3 gusting 9 14.4
2015-May-20 13:37 068 4 gusting 9 14.4
2015-May-20 13:32 113 4 gusting 6 14.4
2015-May-20 13:27 090 4 gusting 6 14.4
2015-May-20 13:22 045 4 gusting 7 14.4
2015-May-20 13:17 068 4 gusting 7 14.4
2015-May-20 13:12 113 4 gusting 6 14.4
2015-May-20 13:07 068 3 gusting 8 14.4
2015-May-20 13:02 068 4 gusting 8 14.4
2015-May-20 12:57 090 4 gusting 12 14.4
2015-May-20 12:52 113 5 gusting 12 14.4
2015-May-20 12:47 068 5 gusting 12 14.4
2015-May-20 12:42 068 4 gusting 7 14.4
2015-May-20 12:37 068 4 gusting 7 14.4
2015-May-20 12:32 068 4 gusting 7 14.4
2015-May-20 12:27 158 3 gusting 10 14.4
2015-May-20 12:22 045 3 gusting 10 14.4
2015-May-20 12:17 045 4 gusting 10 14.4
2015-May-20 12:12 090 4 gusting 8 14.4
2015-May-20 12:07 068 5 gusting 11 14.4
2015-May-20 12:02 068 6 gusting 11 14.4
2015-May-20 11:57 045 5 gusting 11 13.9
2015-May-20 11:52 045 4 gusting 6 14.4
2015-May-20 11:47 068 3 gusting 6 14.4
2015-May-20 11:37 090 1 gusting 8 14.4
2015-May-20 11:32 068 1 gusting 8 14.4
2015-May-20 11:27 068 4 gusting 8 15.0
2015-May-20 11:22 135 4 gusting 7 15.0
2015-May-20 11:17 068 3 gusting 12 15.0
2015-May-20 11:12 045 5 gusting 13 15.6
2015-May-20 11:07 068 6 gusting 13 15.6
2015-May-20 11:02 090 6 gusting 6 15.6
2015-May-20 10:57 113 6 gusting 6 15.6
2015-May-20 10:52 023 5 gusting 7 15.6
2015-May-20 10:47 113 5 gusting 7 15.6
2015-May-20 10:42 068 5 gusting 7 15.6
2015-May-20 10:37 090 4 gusting 8 15.6
2015-May-20 10:32 068 5 gusting 8 16.1
2015-May-20 10:27 023 6 gusting 11 16.1
2015-May-20 10:22 023 6 gusting 11 16.1
2015-May-20 10:17 023 5 gusting 14 16.1
2015-May-20 10:12 045 6 gusting 16 16.1
2015-May-20 10:07 045 7 gusting 16 16.1
2015-May-20 10:02 045 6 gusting 16 16.1